Regional Weather Roundup
Issued by NWS State College, PA

Home | Current Version | Previous Version | Graphics & Text | Print | Product List | Glossary Off
Versions: 1 2 3 4 5 6 7 8 9 10 11 12 13 14 15 16 17 18 19 20 21 22 23 24 25 26 27 28 29 30 31 32 33 34 35 36 37 38 39 40 41 42 43 44 45 46 47 48 49 50

000
ASUS41 KCTP 291403
RWRCTP

REGIONAL WEATHER ROUNDUP
NATIONAL WEATHER SERVICE STATE COLLEGE PA
1000 AM EDT WED JUL 29 2015

Note: "fair" indicates few or no clouds below 12,000 feet with no
significant weather and/or obstructions to visibility.

* = STATION THAT DOES NOT REPORT PRECIPITATION /E.G. RAIN...SNOW...ETC/
    THUNDER OR FOG.

PAZ002>004-007>009-013>016-020>023-029>032-291500-
WESTERN PENNSYLVANIA

CITY           SKY/WX    TMP DP  RH WIND       PRES   REMARKS
ERIE           SUNNY     83  67  58 S8        29.98F
MEADVILLE      SUNNY     79  66  64 VRB5      30.04S
FRANKLIN*      PTSUNNY   75  64  69 CALM      30.06S
NEW CASTLE     PTSUNNY   80  71  74 CALM      30.03S
BEAVER COUNTY  SUNNY     79  70  73 S5        30.03R
BUTLER*        SUNNY     79  70  73 SE5       30.05R
PITTSBURGH INT CLOUDY    80  69  69 SE5       30.02R
PITTSBURGH     SUNNY     79  65  62 S7        30.02R
INDIANA*       SUNNY     79  70  73 VRB5      30.07S
LATROBE        PTSUNNY   79  70  73 VRB5      30.03R
WASHINGTON CO* NOT AVBL
$$

PAZ004>006-010>012-017>019-024>028-033>037-041-042-045-046-049>053-291500-
CENTRAL PENNSYLVANIA

CITY           SKY/WX    TMP DP  RH WIND       PRES   REMARKS
BRADFORD       PTSUNNY   77  63  61 E3        30.08S
DUBOIS         PTSUNNY   78  66  66 SE8       30.06S HAZE
CLEARFIELD     PTSUNNY   71  63  75 N5        30.07S
JOHNSTOWN      MOSUNNY   76  66  71 VRB3      30.08S
ALTOONA        MOSUNNY   76  67  73 CALM      30.07R
STATE COLLEGE  SUNNY     70  68  94 CALM      30.05F
WILLIAMSPORT   PTSUNNY   74  64  71 CALM      30.01F
SELINSGROVE    MOSUNNY   79  68  69 VRB3      30.02F
FT INDIANTOWN  PTSUNNY   79  72  78 SW5       30.02S
CAPITAL CITY   SUNNY     82  70  66 SE5       30.01F
HARRISBURG     PTSUNNY   83  72  69 S5        30.01S
YORK           MOSUNNY   77  71  82 CALM      30.03S
$$

PAZ038>040-043-044-047-048-054-055-060>062-067>071-291500-
EASTERN PENNSYLVANIA

CITY           SKY/WX    TMP DP  RH WIND       PRES   REMARKS
SCRANTON       MOSUNNY   79  66  64 CALM      30.04F
MOUNT POCONO     N/A     80  62  54 W5        30.08F
ALLENTOWN      SUNNY     83  69  62 CALM      30.01S
QUAKERTOWN*    SUNNY     86  70  58 CALM      30.03S
READING        SUNNY     84  69  60 CALM      30.00F
LANCASTER      SUNNY     81  71  71 SE3       30.02F
COATESVILLE    SUNNY     79  73  83 S5        30.05R
POTTSTOWN      SUNNY     83  73  72 CALM      30.03S
BLUE BELL      SUNNY     86  72  62 CALM      30.01S
DOYLESTOWN     SUNNY     83  68  60 CALM      30.01S
WILLOW GROVE   NOT AVBL
NORTH PHILA    SUNNY     89  66  46 CALM      30.02S
PHILADELPHIA   PTSUNNY   84  73  69 SW8       30.01S
$$


USA.gov is the U.S. government's official web portal to all federal, state and local government web resources and services.